Aérodrome :
LOGIN :

S'inscrire | Disclaimer

   EN    FR    IT 

 










Légende :    VFR   VFR Marginal   IFR   IFR Intensif   IFR Très Intensif
Visi : 
Plafond : 
>= 8 km
>= 3000ft
5 à 8 km
1000 à 3000 ft
1500m à 5 km
500 à 1000 ft
800 à 1500m
200 à 500 ft
< 800m
< 200 ft
Symboles :   Orages  Brouillard  Fortes neiges  Fortes précipitations  Vent > 20 kt
SIGMETs :   Divers  Orages  Givrage  Turbulence  Onde Orograph.  Cendres Volcan.







- Altitude de l'aérodrome : 650 ft
- Code IATA : ZJI


LSZL - Locarno

DERNIER METAR :
  • 241450Z AUTO 00000KT 9999NDV -SHRA FEW063 BKN077 12/10 Q1025 RMK

METARs EXPIRÉS :
  • 241350Z 00000KT 8000 -RA FEW030 BKN060 OVC080 12/09 Q1026 RMK BLU
  • 241250Z 00000KT 8000 FEW020 BKN060 OVC080 12/10 Q1026 RMK BLU

TAF TAF LSZL
Valide du 24 à 12h jusqu'au 24 à 21h UTC


241125Z 2412/2421 VRB03KT 8000 BKN060
PROB40
TEMPO 2412/2415 RA
PROB40 2417/2421 CAVOK
Pas de NOTAMs connus pour ce terrain.



MET'MAP, la Météo Aéronautique d'un coup d'oeil ! - Copyright ORBIFLY Décembre 2007 - Disclaimer

ORBIFLY MET'MAP TEAM :

Programmation & Développement : Alexandra Zaïnal
Conception & Développement : Baudouin d'Aumeries
Co-Programmation & Développement : Marc-Olivier Méhu
Soutien technique & logistique : Manuel Goepfert

Contact : metmap@orbifly.com




SOURCES & CREDITS :

   NOAA